EWG7A EDDH-LEJR

Flight info

Callsign EWG7A
Flight time 3h 11m
Altitude 36000
Route HABFU1C/05 HABFU Y348 DOMEG DCT MHD DCT ASPIX DCT FAMEN DCT CTL DCT ODEBU DCT ARMAL DCT ARTAX DCT LIBRU DCT NETUK N857 NOLSA N10 BAN N857 HIJ
Aircraft A319/M-SDE3FGHIRWY/LB1

Departure

Time 2026-05-07 12:07
Airport Hamburg Helmut Schmidt Airport (EDDH)

Arrival

Time 2026-05-07 15:19
Airport Jerez Airport (LEJR)
Time Latitude Longitude Altitude Speed Heading
2026-05-07 11:35 53.62772 10.00277 61 ft 0 kts 63°
2026-05-07 11:54 53.62772 10.00274 62 ft 1 kts 63°
2026-05-07 11:54 53.62765 10.00252 62 ft 2 kts 63°
2026-05-07 11:54 53.62758 10.00230 62 ft 2 kts 63°
2026-05-07 11:55 53.62754 10.00215 62 ft 2 kts 59°
2026-05-07 11:55 53.62743 10.00197 62 ft 2 kts 32°
2026-05-07 11:55 53.62730 10.00187 62 ft 2 kts 11°
2026-05-07 11:55 53.62716 10.00186 62 ft 2 kts 349°
2026-05-07 11:56 53.62706 10.00191 62 ft 0 kts 335°
2026-05-07 11:56 53.62699 10.00197 62 ft 0 kts 332°
2026-05-07 12:00 53.62700 10.00196 62 ft 0 kts 332°
2026-05-07 12:00 53.62706 10.00191 62 ft 1 kts 332°
2026-05-07 12:00 53.62726 10.00173 62 ft 4 kts 332°
2026-05-07 12:00 53.62764 10.00140 62 ft 5 kts 333°
2026-05-07 12:01 53.62781 10.00125 62 ft 3 kts 333°
2026-05-07 12:01 53.62806 10.00104 61 ft 4 kts 330°
2026-05-07 12:01 53.62820 10.00084 61 ft 0 kts 312°
2026-05-07 12:02 53.62825 10.00073 62 ft 2 kts 304°
2026-05-07 12:02 53.62832 10.00023 61 ft 6 kts 261°
2026-05-07 12:03 53.62795 9.99955 61 ft 10 kts 211°
2026-05-07 12:03 53.62718 9.99883 61 ft 14 kts 208°
2026-05-07 12:03 53.62639 9.99756 62 ft 17 kts 252°
2026-05-07 12:03 53.62616 9.99551 61 ft 18 kts 258°
2026-05-07 12:04 53.62589 9.99325 61 ft 20 kts 259°
2026-05-07 12:04 53.62561 9.99085 62 ft 21 kts 259°
2026-05-07 12:04 53.62534 9.98827 61 ft 23 kts 259°
2026-05-07 12:04 53.62502 9.98556 61 ft 23 kts 256°
2026-05-07 12:05 53.62471 9.98284 61 ft 24 kts 258°
2026-05-07 12:05 53.62399 9.98028 62 ft 24 kts 230°
2026-05-07 12:05 53.62285 9.97799 62 ft 25 kts 230°
2026-05-07 12:05 53.62197 9.97617 61 ft 16 kts 236°
2026-05-07 12:06 53.62194 9.97434 62 ft 16 kts 303°
2026-05-07 12:06 53.62296 9.97371 62 ft 17 kts 20°
2026-05-07 12:06 53.62373 9.97477 61 ft 12 kts 46°
2026-05-07 12:06 53.62430 9.97590 61 ft 13 kts 52°
2026-05-07 12:07 53.62593 9.97927 62 ft 72 kts 51°
2026-05-07 12:07 53.63063 9.98878 62 ft 137 kts 51°
2026-05-07 12:07 53.63737 10.00250 462 ft 156 kts 51°
2026-05-07 12:07 53.64452 10.01638 1113 ft 164 kts 49°
2026-05-07 12:08 53.65222 10.03038 1855 ft 169 kts 49°
2026-05-07 12:08 53.66016 10.04570 2414 ft 182 kts 52°
2026-05-07 12:08 53.66822 10.06310 2921 ft 198 kts 53°
2026-05-07 12:08 53.67692 10.08173 3550 ft 208 kts 52°
2026-05-07 12:09 53.68845 10.09758 4205 ft 220 kts 24°
2026-05-07 12:09 53.70356 10.10079 4913 ft 229 kts 353°
2026-05-07 12:09 53.71832 10.09004 5584 ft 245 kts 322°
2026-05-07 12:09 53.72865 10.06605 6077 ft 267 kts 298°
2026-05-07 12:10 53.73684 10.03702 6662 ft 281 kts 297°
2026-05-07 12:10 53.74535 10.00737 7475 ft 285 kts 297°
2026-05-07 12:10 53.75066 9.97511 8323 ft 290 kts 271°
2026-05-07 12:10 53.74640 9.94260 9204 ft 291 kts 247°
2026-05-07 12:11 53.73811 9.91149 10077 ft 292 kts 246°
2026-05-07 12:11 53.72979 9.88037 10758 ft 299 kts 246°
2026-05-07 12:11 53.72108 9.84713 11155 ft 316 kts 247°
2026-05-07 12:11 53.71225 9.81285 11643 ft 329 kts 247°
2026-05-07 12:12 53.70317 9.77732 12391 ft 332 kts 247°
2026-05-07 12:12 53.69409 9.74171 13163 ft 333 kts 247°
2026-05-07 12:12 53.68487 9.70559 13897 ft 336 kts 248°
2026-05-07 12:12 53.67570 9.66966 14602 ft 339 kts 248°
2026-05-07 12:13 53.66634 9.63302 15312 ft 341 kts 248°
2026-05-07 12:13 53.65553 9.59761 15995 ft 345 kts 236°
2026-05-07 12:13 53.63911 9.56815 16607 ft 349 kts 219°
2026-05-07 12:13 53.61868 9.54661 17278 ft 353 kts 210°
2026-05-07 12:14 53.59684 9.52687 17897 ft 356 kts 209°
2026-05-07 12:14 53.57501 9.50740 18485 ft 359 kts 209°
2026-05-07 12:14 53.55302 9.48764 19078 ft 362 kts 209°
2026-05-07 12:14 53.53070 9.46745 19688 ft 364 kts 210°
2026-05-07 12:15 53.50851 9.44727 20266 ft 367 kts 210°
2026-05-07 12:15 53.48603 9.42681 20845 ft 369 kts 210°
2026-05-07 12:15 53.46360 9.40639 21408 ft 372 kts 210°
2026-05-07 12:15 53.44073 9.38559 21963 ft 374 kts 210°
2026-05-07 12:16 53.41788 9.36482 22509 ft 376 kts 210°
2026-05-07 12:16 53.39482 9.34390 23040 ft 379 kts 209°
2026-05-07 12:16 53.37163 9.32290 23550 ft 381 kts 209°
2026-05-07 12:16 53.34817 9.30199 24040 ft 384 kts 206°
2026-05-07 12:17 53.32375 9.28465 24520 ft 387 kts 200°
2026-05-07 12:17 53.29763 9.27187 24972 ft 391 kts 193°
2026-05-07 12:17 53.27085 9.26314 25415 ft 394 kts 191°
2026-05-07 12:17 53.24387 9.25517 25828 ft 397 kts 190°
2026-05-07 12:18 53.21663 9.24725 26237 ft 400 kts 190°
2026-05-07 12:18 53.18912 9.23920 26643 ft 403 kts 190°
2026-05-07 12:18 53.16182 9.23117 27036 ft 405 kts 190°
2026-05-07 12:18 53.13379 9.22290 27430 ft 408 kts 191°
2026-05-07 12:19 53.10608 9.21471 27817 ft 410 kts 190°
2026-05-07 12:19 53.07806 9.20643 28186 ft 412 kts 190°
2026-05-07 12:19 53.04956 9.19801 28552 ft 415 kts 190°
2026-05-07 12:19 53.02127 9.18966 28909 ft 417 kts 190°
2026-05-07 12:20 52.99269 9.18078 29253 ft 419 kts 193°
2026-05-07 12:20 52.96430 9.16861 29584 ft 421 kts 197°
2026-05-07 12:20 52.93679 9.15278 29902 ft 423 kts 202°
2026-05-07 12:20 52.90998 9.13313 30229 ft 425 kts 206°
2026-05-07 12:21 52.88350 9.11029 30541 ft 427 kts 208°
2026-05-07 12:21 52.85761 9.08747 30935 ft 427 kts 208°
2026-05-07 12:21 52.83131 9.06430 31344 ft 425 kts 208°
2026-05-07 12:21 52.80550 9.04165 31704 ft 425 kts 208°
2026-05-07 12:22 52.77940 9.01882 32052 ft 425 kts 208°
2026-05-07 12:22 52.75344 8.99617 32366 ft 425 kts 208°
2026-05-07 12:22 52.72714 8.97329 32693 ft 424 kts 208°
2026-05-07 12:22 52.70107 8.95062 33012 ft 424 kts 208°
2026-05-07 12:23 52.67506 8.92804 33320 ft 424 kts 208°
2026-05-07 12:23 52.64909 8.90549 33609 ft 424 kts 208°
2026-05-07 12:23 52.62291 8.88278 33848 ft 424 kts 208°
2026-05-07 12:23 52.59706 8.86038 34069 ft 424 kts 208°
2026-05-07 12:24 52.57084 8.83770 34272 ft 425 kts 208°
2026-05-07 12:24 52.54491 8.81530 34446 ft 426 kts 208°
2026-05-07 12:24 52.51846 8.79248 34633 ft 427 kts 208°
2026-05-07 12:24 52.49220 8.76987 34810 ft 428 kts 208°
2026-05-07 12:25 52.46593 8.74728 34985 ft 429 kts 208°
2026-05-07 12:25 52.43975 8.72479 35165 ft 429 kts 208°
2026-05-07 12:25 52.41318 8.70203 35340 ft 429 kts 208°
2026-05-07 12:25 52.38676 8.67941 35501 ft 430 kts 208°
2026-05-07 12:26 52.36025 8.65674 35649 ft 430 kts 208°
2026-05-07 12:26 52.33406 8.63346 35787 ft 431 kts 211°
2026-05-07 12:26 52.30887 8.60812 35935 ft 431 kts 214°
2026-05-07 12:27 52.26055 8.54942 36038 ft 431 kts 221°
2026-05-07 12:27 52.21734 8.48267 36042 ft 431 kts 228°
2026-05-07 12:28 52.17713 8.41047 36041 ft 430 kts 229°
2026-05-07 12:28 52.13708 8.33874 36041 ft 431 kts 228°
2026-05-07 12:29 52.09676 8.26684 36043 ft 431 kts 228°
2026-05-07 12:29 52.05633 8.19496 36034 ft 431 kts 228°
2026-05-07 12:30 52.01580 8.12311 36038 ft 431 kts 228°
2026-05-07 12:30 51.97535 8.05162 36041 ft 431 kts 228°
2026-05-07 12:31 51.93456 7.97977 36034 ft 431 kts 228°
2026-05-07 12:31 51.89399 7.90849 36034 ft 430 kts 228°
2026-05-07 12:32 51.85343 7.83744 36038 ft 430 kts 228°
2026-05-07 12:32 51.81305 7.76689 36039 ft 430 kts 228°
2026-05-07 12:33 51.75226 7.66110 36038 ft 430 kts 228°
2026-05-07 12:33 51.71223 7.58877 36035 ft 430 kts 232°
2026-05-07 12:34 51.67732 7.51161 36041 ft 429 kts 236°
2026-05-07 12:34 51.64379 7.43276 36043 ft 429 kts 237°
2026-05-07 12:35 51.61010 7.35384 36043 ft 428 kts 237°
2026-05-07 12:35 51.57655 7.27555 36047 ft 428 kts 236°
2026-05-07 12:36 51.54295 7.19738 36039 ft 428 kts 236°
2026-05-07 12:36 51.50945 7.11971 36046 ft 428 kts 236°
2026-05-07 12:37 51.47542 7.04104 36041 ft 428 kts 236°
2026-05-07 12:37 51.44188 6.96375 36039 ft 428 kts 236°
2026-05-07 12:38 51.40801 6.88592 36042 ft 428 kts 236°
2026-05-07 12:38 51.37394 6.80788 36045 ft 427 kts 236°
2026-05-07 12:39 51.34022 6.73088 36051 ft 426 kts 236°
2026-05-07 12:39 51.30634 6.65372 36052 ft 426 kts 236°
2026-05-07 12:40 51.27241 6.57669 36041 ft 426 kts 236°
2026-05-07 12:40 51.23657 6.50199 36043 ft 426 kts 230°
2026-05-07 12:41 51.19569 6.43428 36050 ft 427 kts 224°
2026-05-07 12:41 51.15194 6.37049 36047 ft 426 kts 224°
2026-05-07 12:42 51.10855 6.30727 36047 ft 426 kts 223°
2026-05-07 12:42 51.06504 6.24400 36055 ft 425 kts 223°
2026-05-07 12:43 51.02196 6.18150 36048 ft 425 kts 223°
2026-05-07 12:43 50.97870 6.11891 36044 ft 425 kts 223°
2026-05-07 12:44 50.93610 6.05744 36043 ft 425 kts 223°
2026-05-07 12:44 50.89245 5.99459 36047 ft 425 kts 223°
2026-05-07 12:45 50.84879 5.93191 36042 ft 424 kts 223°
2026-05-07 12:45 50.80532 5.86964 36041 ft 424 kts 223°
2026-05-07 12:46 50.76173 5.80740 36030 ft 424 kts 223°
2026-05-07 12:46 50.71816 5.74532 36021 ft 424 kts 223°
2026-05-07 12:47 50.67429 5.68301 36032 ft 423 kts 223°
2026-05-07 12:47 50.63080 5.62140 36037 ft 423 kts 223°
2026-05-07 12:48 50.58724 5.55983 36040 ft 424 kts 223°
2026-05-07 12:48 50.54321 5.49776 36044 ft 423 kts 223°
2026-05-07 12:49 50.49955 5.43631 36046 ft 423 kts 224°
2026-05-07 12:49 50.45840 5.37094 36043 ft 422 kts 229°
2026-05-07 12:50 50.42016 5.30634 36045 ft 422 kts 228°
2026-05-07 12:50 50.38010 5.23887 36037 ft 422 kts 228°
2026-05-07 12:51 50.34008 5.17165 36038 ft 422 kts 228°
2026-05-07 12:51 50.30039 5.10515 36040 ft 421 kts 228°
2026-05-07 12:52 50.26023 5.03807 36036 ft 421 kts 228°
2026-05-07 12:52 50.22008 4.97118 36035 ft 422 kts 228°
2026-05-07 12:53 50.18035 4.90514 36033 ft 421 kts 228°
2026-05-07 12:53 50.14038 4.83887 36032 ft 421 kts 228°
2026-05-07 12:54 50.10032 4.77264 36032 ft 421 kts 228°
2026-05-07 12:54 50.06002 4.70621 36033 ft 420 kts 228°
2026-05-07 12:55 50.01991 4.64029 36031 ft 420 kts 228°
2026-05-07 12:55 49.97903 4.57550 36029 ft 421 kts 224°
2026-05-07 12:56 49.93416 4.51734 36031 ft 422 kts 219°
2026-05-07 12:56 49.88966 4.46385 36025 ft 421 kts 219°
2026-05-07 12:57 49.84356 4.40848 36027 ft 421 kts 219°
2026-05-07 12:57 49.79723 4.35297 36029 ft 421 kts 219°
2026-05-07 12:58 49.75105 4.29778 36029 ft 421 kts 219°
2026-05-07 12:58 49.70479 4.24264 36030 ft 420 kts 219°
2026-05-07 12:59 49.65873 4.18787 36026 ft 420 kts 219°
2026-05-07 12:59 49.61256 4.13311 36028 ft 420 kts 219°
2026-05-07 13:00 49.56639 4.07847 36027 ft 420 kts 219°
2026-05-07 13:00 49.52013 4.02387 36027 ft 420 kts 219°
2026-05-07 13:01 49.47382 3.96935 36024 ft 420 kts 219°
2026-05-07 13:01 49.42753 3.91497 36028 ft 420 kts 219°
2026-05-07 13:02 49.38096 3.86041 36028 ft 420 kts 219°
2026-05-07 13:02 49.33453 3.80613 36036 ft 420 kts 219°
2026-05-07 13:03 49.28837 3.75230 36035 ft 420 kts 219°
2026-05-07 13:03 49.24184 3.69818 36032 ft 420 kts 219°
2026-05-07 13:04 49.19551 3.64441 36037 ft 420 kts 219°
2026-05-07 13:04 49.14890 3.59047 36029 ft 420 kts 219°
2026-05-07 13:05 49.10209 3.53696 35894 ft 421 kts 218°
2026-05-07 13:05 49.05541 3.48422 35983 ft 421 kts 218°
2026-05-07 13:06 49.00838 3.43117 36016 ft 421 kts 218°
2026-05-07 13:06 48.96136 3.37823 36022 ft 421 kts 218°
2026-05-07 13:07 48.91515 3.32632 36024 ft 420 kts 217°
2026-05-07 13:07 48.86813 3.27361 36024 ft 420 kts 217°
2026-05-07 13:08 48.82128 3.22123 36031 ft 420 kts 217°
2026-05-07 13:08 48.77426 3.16878 36021 ft 420 kts 217°
2026-05-07 13:09 48.72704 3.11623 36014 ft 420 kts 218°
2026-05-07 13:09 48.68026 3.06429 36022 ft 420 kts 218°
2026-05-07 13:10 48.63332 3.01229 36017 ft 419 kts 218°
2026-05-07 13:10 48.58628 2.96031 36012 ft 419 kts 218°
2026-05-07 13:11 48.53929 2.90850 36012 ft 419 kts 218°
2026-05-07 13:11 48.49234 2.85686 36018 ft 419 kts 218°
2026-05-07 13:12 48.44515 2.80508 36014 ft 419 kts 218°
2026-05-07 13:12 48.39809 2.75357 36009 ft 418 kts 218°
2026-05-07 13:13 48.35135 2.70254 36006 ft 419 kts 218°
2026-05-07 13:13 48.30344 2.65226 36002 ft 419 kts 214°
2026-05-07 13:14 48.25267 2.60982 36001 ft 420 kts 208°
2026-05-07 13:14 48.19925 2.57532 35997 ft 421 kts 205°
2026-05-07 13:15 48.14490 2.54170 35998 ft 421 kts 205°
2026-05-07 13:15 48.09111 2.50848 36000 ft 421 kts 205°
2026-05-07 13:16 48.03666 2.47493 35998 ft 421 kts 205°
2026-05-07 13:16 47.98294 2.44191 35995 ft 420 kts 205°
2026-05-07 13:17 47.92874 2.40868 36003 ft 420 kts 205°
2026-05-07 13:17 47.87505 2.37584 36010 ft 420 kts 205°
2026-05-07 13:18 47.82114 2.34294 36012 ft 419 kts 204°
2026-05-07 13:18 47.76751 2.31026 36011 ft 420 kts 204°
2026-05-07 13:19 47.71331 2.27734 36009 ft 419 kts 204°
2026-05-07 13:19 47.65965 2.24480 36012 ft 419 kts 204°
2026-05-07 13:20 47.60592 2.21230 36006 ft 419 kts 204°
2026-05-07 13:20 47.55199 2.17974 36005 ft 419 kts 204°
2026-05-07 13:21 47.49791 2.14717 36005 ft 419 kts 204°
2026-05-07 13:21 47.44434 2.11501 36003 ft 418 kts 204°
2026-05-07 13:22 47.39055 2.08276 36005 ft 418 kts 204°
2026-05-07 13:22 47.33561 2.05540 36003 ft 419 kts 198°
2026-05-07 13:23 47.27860 2.03716 36000 ft 420 kts 192°
2026-05-07 13:23 47.22081 2.02258 36002 ft 420 kts 192°
2026-05-07 13:24 47.16330 2.00801 36002 ft 420 kts 192°
2026-05-07 13:24 47.10582 1.99351 35997 ft 420 kts 192°
2026-05-07 13:25 47.04821 1.97902 35986 ft 420 kts 192°
2026-05-07 13:25 46.99064 1.96457 35985 ft 420 kts 192°
2026-05-07 13:26 46.93339 1.95024 35985 ft 419 kts 192°
2026-05-07 13:26 46.87736 1.93622 35988 ft 419 kts 193°
2026-05-07 13:27 46.82007 1.92193 35987 ft 418 kts 193°
2026-05-07 13:27 46.76267 1.90764 35988 ft 418 kts 193°
2026-05-07 13:28 46.70535 1.89340 35988 ft 418 kts 193°
2026-05-07 13:28 46.64777 1.87913 35982 ft 418 kts 193°
2026-05-07 13:29 46.59056 1.86499 35982 ft 418 kts 193°
2026-05-07 13:29 46.53334 1.85088 35987 ft 417 kts 193°
2026-05-07 13:30 46.47599 1.83676 35984 ft 417 kts 193°
2026-05-07 13:30 46.41887 1.82274 35981 ft 416 kts 193°
2026-05-07 13:31 46.36201 1.80880 35985 ft 416 kts 193°
2026-05-07 13:31 46.30630 1.79018 35982 ft 412 kts 202°
2026-05-07 13:32 46.25431 1.75623 35983 ft 409 kts 213°
2026-05-07 13:32 46.20832 1.70823 35981 ft 406 kts 224°
2026-05-07 13:33 46.16840 1.65073 35984 ft 406 kts 227°
2026-05-07 13:33 46.12940 1.59253 35987 ft 406 kts 227°
2026-05-07 13:34 46.07041 1.50487 35980 ft 405 kts 227°
2026-05-07 13:35 46.03133 1.44701 35982 ft 405 kts 227°
2026-05-07 13:35 45.99200 1.38890 35982 ft 405 kts 227°
2026-05-07 13:36 45.95277 1.33109 35988 ft 405 kts 226°
2026-05-07 13:36 45.91361 1.27350 35989 ft 404 kts 226°
2026-05-07 13:37 45.87422 1.21570 35992 ft 404 kts 226°
2026-05-07 13:37 45.83477 1.15794 35989 ft 404 kts 226°
2026-05-07 13:38 45.79533 1.10033 35987 ft 405 kts 226°
2026-05-07 13:38 45.75574 1.04262 35979 ft 405 kts 226°
2026-05-07 13:39 45.71639 0.98536 35971 ft 405 kts 226°
2026-05-07 13:39 45.67690 0.92803 35966 ft 405 kts 226°
2026-05-07 13:40 45.63728 0.87064 35963 ft 405 kts 226°
2026-05-07 13:40 45.59772 0.81346 35963 ft 404 kts 226°
2026-05-07 13:41 45.55831 0.75663 35959 ft 404 kts 226°
2026-05-07 13:41 45.51853 0.69939 35961 ft 404 kts 226°
2026-05-07 13:42 45.47903 0.64266 35960 ft 404 kts 226°
2026-05-07 13:42 45.43943 0.58592 35957 ft 404 kts 226°
2026-05-07 13:43 45.39983 0.52928 35954 ft 404 kts 226°
2026-05-07 13:43 45.36028 0.47281 35958 ft 404 kts 226°
2026-05-07 13:44 45.32051 0.41617 35961 ft 404 kts 226°
2026-05-07 13:44 45.28104 0.36008 35953 ft 404 kts 226°
2026-05-07 13:45 45.24190 0.30459 35952 ft 404 kts 225°
2026-05-07 13:45 45.20219 0.24839 35956 ft 404 kts 225°
2026-05-07 13:46 45.16249 0.19231 35952 ft 403 kts 225°
2026-05-07 13:46 45.12286 0.13646 35940 ft 403 kts 225°
2026-05-07 13:47 45.08307 0.08052 35933 ft 404 kts 225°
2026-05-07 13:47 45.04328 0.02465 35938 ft 403 kts 225°
2026-05-07 13:48 45.00333 -0.03131 35938 ft 404 kts 225°
2026-05-07 13:48 44.96349 -0.08699 35930 ft 403 kts 225°
2026-05-07 13:49 44.92368 -0.14242 35920 ft 404 kts 224°
2026-05-07 13:49 44.88128 -0.19396 35931 ft 404 kts 218°
2026-05-07 13:50 44.83539 -0.23865 35933 ft 404 kts 213°
2026-05-07 13:50 44.78812 -0.28124 35925 ft 404 kts 213°
2026-05-07 13:51 44.74053 -0.32406 35923 ft 404 kts 213°
2026-05-07 13:51 44.69340 -0.36635 35925 ft 404 kts 213°
2026-05-07 13:52 44.64585 -0.40893 35926 ft 404 kts 213°
2026-05-07 13:52 44.59833 -0.45140 35927 ft 404 kts 213°
2026-05-07 13:53 44.55077 -0.49381 35924 ft 404 kts 213°
2026-05-07 13:53 44.50338 -0.53599 35920 ft 404 kts 213°
2026-05-07 13:54 44.45620 -0.57790 35922 ft 404 kts 213°
2026-05-07 13:54 44.40866 -0.62004 35918 ft 404 kts 213°
2026-05-07 13:55 44.36128 -0.66195 35917 ft 404 kts 212°
2026-05-07 13:55 44.31369 -0.70397 35921 ft 404 kts 212°
2026-05-07 13:56 44.26606 -0.74595 35923 ft 405 kts 212°
2026-05-07 13:56 44.21869 -0.78763 35915 ft 404 kts 212°
2026-05-07 13:57 44.17108 -0.82942 35913 ft 404 kts 212°
2026-05-07 13:57 44.12366 -0.87098 35910 ft 405 kts 212°
2026-05-07 13:58 44.07605 -0.91262 35918 ft 404 kts 212°
2026-05-07 13:58 44.02859 -0.95404 35912 ft 404 kts 212°
2026-05-07 13:59 43.98085 -0.99562 35910 ft 404 kts 212°
2026-05-07 13:59 43.93346 -1.03683 35906 ft 404 kts 212°
2026-05-07 14:00 43.88567 -1.07832 35906 ft 405 kts 212°
2026-05-07 14:00 43.83807 -1.11954 35912 ft 405 kts 212°
2026-05-07 14:01 43.79034 -1.16080 35903 ft 405 kts 212°
2026-05-07 14:01 43.74247 -1.20212 35913 ft 404 kts 212°
2026-05-07 14:02 43.69497 -1.24303 35916 ft 405 kts 212°
2026-05-07 14:02 43.64708 -1.28420 35911 ft 405 kts 212°
2026-05-07 14:03 43.59928 -1.32520 35904 ft 404 kts 212°
2026-05-07 14:03 43.55170 -1.36594 35900 ft 405 kts 212°
2026-05-07 14:04 43.50378 -1.40689 35906 ft 405 kts 212°
2026-05-07 14:04 43.45611 -1.44755 35909 ft 405 kts 212°
2026-05-07 14:05 43.40791 -1.48859 35914 ft 406 kts 212°
2026-05-07 14:05 43.35995 -1.52934 35904 ft 406 kts 212°
2026-05-07 14:06 43.31140 -1.56893 36106 ft 405 kts 208°
2026-05-07 14:06 43.26005 -1.60006 35961 ft 404 kts 201°
2026-05-07 14:07 43.20636 -1.62139 35933 ft 405 kts 194°
2026-05-07 14:07 43.15039 -1.63330 35923 ft 405 kts 189°
2026-05-07 14:08 43.09451 -1.64260 35924 ft 405 kts 189°
2026-05-07 14:08 43.03891 -1.65181 35934 ft 405 kts 188°
2026-05-07 14:09 42.98286 -1.66108 35935 ft 406 kts 188°
2026-05-07 14:09 42.92698 -1.67029 35939 ft 406 kts 188°
2026-05-07 14:10 42.87091 -1.67952 35931 ft 406 kts 188°
2026-05-07 14:10 42.81502 -1.68879 35939 ft 406 kts 189°
2026-05-07 14:11 42.75961 -1.70316 35931 ft 405 kts 195°
2026-05-07 14:11 42.70578 -1.72552 35936 ft 404 kts 201°
2026-05-07 14:12 42.65449 -1.75534 35933 ft 403 kts 206°
2026-05-07 14:12 42.60438 -1.78903 35918 ft 403 kts 206°
2026-05-07 14:13 42.55389 -1.82283 35911 ft 404 kts 206°
2026-05-07 14:13 42.50370 -1.85644 35920 ft 405 kts 206°
2026-05-07 14:14 42.45305 -1.89030 35918 ft 404 kts 206°
2026-05-07 14:14 42.40268 -1.92390 35913 ft 405 kts 207°
2026-05-07 14:15 42.35235 -1.95742 35911 ft 404 kts 207°
2026-05-07 14:15 42.30192 -1.99100 35905 ft 404 kts 207°
2026-05-07 14:16 42.25149 -2.02454 35910 ft 404 kts 207°
2026-05-07 14:16 42.20072 -2.05808 35910 ft 405 kts 207°
2026-05-07 14:17 42.15018 -2.09143 35916 ft 405 kts 207°
2026-05-07 14:17 42.09954 -2.12486 35917 ft 406 kts 207°
2026-05-07 14:18 42.04923 -2.15802 35916 ft 406 kts 207°
2026-05-07 14:18 41.99853 -2.19136 35910 ft 405 kts 207°
2026-05-07 14:19 41.94776 -2.22470 35901 ft 406 kts 207°
2026-05-07 14:19 41.89912 -2.25658 35904 ft 406 kts 207°
2026-05-07 14:20 41.84644 -2.29106 35904 ft 406 kts 207°
2026-05-07 14:20 41.79575 -2.32415 35915 ft 407 kts 207°
2026-05-07 14:21 41.74513 -2.35715 35901 ft 407 kts 207°
2026-05-07 14:21 41.69414 -2.39033 35938 ft 407 kts 207°
2026-05-07 14:22 41.64323 -2.42339 35920 ft 407 kts 207°
2026-05-07 14:22 41.59207 -2.45656 35923 ft 408 kts 207°
2026-05-07 14:23 41.54120 -2.48947 35914 ft 408 kts 207°
2026-05-07 14:23 41.49046 -2.52227 35930 ft 408 kts 207°
2026-05-07 14:24 41.43922 -2.55532 35934 ft 409 kts 207°
2026-05-07 14:24 41.38802 -2.58828 35932 ft 409 kts 207°
2026-05-07 14:25 41.33695 -2.62210 35934 ft 409 kts 211°
2026-05-07 14:25 41.28893 -2.66159 35930 ft 407 kts 216°
2026-05-07 14:26 41.24242 -2.70446 35927 ft 408 kts 216°
2026-05-07 14:26 41.19570 -2.74738 35909 ft 408 kts 216°
2026-05-07 14:27 41.14932 -2.78994 35921 ft 408 kts 216°
2026-05-07 14:27 41.10238 -2.83296 35924 ft 408 kts 216°
2026-05-07 14:28 41.05571 -2.87566 35921 ft 409 kts 216°
2026-05-07 14:28 41.00901 -2.91830 35921 ft 410 kts 216°
2026-05-07 14:29 40.96208 -2.96110 35927 ft 409 kts 216°
2026-05-07 14:29 40.91515 -3.00377 35927 ft 409 kts 216°
2026-05-07 14:30 40.86837 -3.04625 35931 ft 409 kts 217°
2026-05-07 14:30 40.82142 -3.08882 35932 ft 409 kts 217°
2026-05-07 14:31 40.77475 -3.13108 35936 ft 410 kts 217°
2026-05-07 14:31 40.72772 -3.17356 35937 ft 410 kts 217°
2026-05-07 14:32 40.68054 -3.21615 35930 ft 410 kts 217°
2026-05-07 14:32 40.63359 -3.25843 35925 ft 410 kts 217°
2026-05-07 14:33 40.58655 -3.30071 35920 ft 410 kts 217°
2026-05-07 14:33 40.53936 -3.34307 35922 ft 410 kts 217°
2026-05-07 14:34 40.49229 -3.38521 35916 ft 411 kts 218°
2026-05-07 14:34 40.44522 -3.42732 35912 ft 411 kts 218°
2026-05-07 14:34 40.42152 -3.44850 35679 ft 411 kts 218°
2026-05-07 14:35 40.39787 -3.46958 35808 ft 413 kts 218°
2026-05-07 14:35 40.35031 -3.51199 35889 ft 413 kts 218°
2026-05-07 14:36 40.30275 -3.55431 35908 ft 413 kts 218°
2026-05-07 14:36 40.25517 -3.59654 35920 ft 414 kts 218°
2026-05-07 14:37 40.20764 -3.63867 35923 ft 413 kts 218°
2026-05-07 14:37 40.13612 -3.70196 35914 ft 414 kts 218°
2026-05-07 14:38 40.08855 -3.74394 35887 ft 415 kts 218°
2026-05-07 14:38 40.04064 -3.78615 35911 ft 416 kts 218°
2026-05-07 14:39 39.99276 -3.82827 35878 ft 415 kts 218°
2026-05-07 14:39 39.94505 -3.87019 35873 ft 416 kts 219°
2026-05-07 14:40 39.89719 -3.91213 35861 ft 416 kts 219°
2026-05-07 14:40 39.84904 -3.95426 35864 ft 416 kts 219°
2026-05-07 14:41 39.80098 -3.99624 35871 ft 416 kts 219°
2026-05-07 14:41 39.75311 -4.03799 35887 ft 415 kts 219°
2026-05-07 14:42 39.70504 -4.07984 35886 ft 415 kts 219°
2026-05-07 14:42 39.65708 -4.12153 35887 ft 415 kts 220°
2026-05-07 14:43 39.60892 -4.16332 35882 ft 416 kts 220°
2026-05-07 14:43 39.56107 -4.20476 35880 ft 415 kts 220°
2026-05-07 14:44 39.51318 -4.24619 35884 ft 415 kts 220°
2026-05-07 14:44 39.46525 -4.28756 35893 ft 415 kts 220°
2026-05-07 14:45 39.41734 -4.32885 35895 ft 414 kts 220°
2026-05-07 14:45 39.36958 -4.36993 35901 ft 413 kts 221°
2026-05-07 14:46 39.32184 -4.41093 35896 ft 413 kts 221°
2026-05-07 14:46 39.27398 -4.45199 35889 ft 414 kts 221°
2026-05-07 14:47 39.22608 -4.49300 35887 ft 412 kts 221°
2026-05-07 14:47 39.17832 -4.53384 35889 ft 413 kts 221°
2026-05-07 14:48 39.13063 -4.57450 35895 ft 412 kts 221°
2026-05-07 14:48 39.08303 -4.61508 35891 ft 410 kts 221°
2026-05-07 14:49 39.03547 -4.65553 35897 ft 409 kts 221°
2026-05-07 14:49 38.98812 -4.69571 35895 ft 409 kts 222°
2026-05-07 14:50 38.94044 -4.73616 35882 ft 410 kts 221°
2026-05-07 14:50 38.89412 -4.77535 35880 ft 409 kts 221°
2026-05-07 14:51 38.84665 -4.81544 35890 ft 408 kts 221°
2026-05-07 14:51 38.79932 -4.85536 35876 ft 408 kts 222°
2026-05-07 14:52 38.75180 -4.89537 35877 ft 408 kts 222°
2026-05-07 14:52 38.70456 -4.93507 35870 ft 407 kts 222°
2026-05-07 14:53 38.65709 -4.97493 35631 ft 407 kts 222°
2026-05-07 14:53 38.63370 -4.99451 35364 ft 405 kts 222°
2026-05-07 14:53 38.61018 -5.01417 35008 ft 402 kts 223°
2026-05-07 14:54 38.58666 -5.03384 34502 ft 403 kts 223°
2026-05-07 14:54 38.56315 -5.05354 33757 ft 407 kts 223°
2026-05-07 14:54 38.53978 -5.07312 33054 ft 408 kts 223°
2026-05-07 14:54 38.51551 -5.09264 32351 ft 412 kts 220°
2026-05-07 14:55 38.49060 -5.11034 31661 ft 417 kts 217°
2026-05-07 14:55 38.46451 -5.12685 30937 ft 420 kts 215°
2026-05-07 14:55 38.43814 -5.14327 30223 ft 421 kts 215°
2026-05-07 14:55 38.41204 -5.15951 29499 ft 423 kts 215°
2026-05-07 14:56 38.38549 -5.17597 28935 ft 419 kts 214°
2026-05-07 14:56 38.35956 -5.19203 28424 ft 415 kts 214°
2026-05-07 14:56 38.33380 -5.20797 27946 ft 411 kts 214°
2026-05-07 14:56 38.30835 -5.22372 27458 ft 406 kts 214°
2026-05-07 14:57 38.28292 -5.23945 26918 ft 403 kts 214°
2026-05-07 14:57 38.25784 -5.25497 26433 ft 399 kts 214°
2026-05-07 14:57 38.23299 -5.27034 25957 ft 395 kts 213°
2026-05-07 14:57 38.20849 -5.28549 25484 ft 392 kts 213°
2026-05-07 14:58 38.18418 -5.30047 25019 ft 388 kts 213°
2026-05-07 14:58 38.16008 -5.31533 24561 ft 385 kts 213°
2026-05-07 14:58 38.13593 -5.33024 24077 ft 382 kts 213°
2026-05-07 14:58 38.11214 -5.34488 23596 ft 380 kts 213°
2026-05-07 14:59 38.08838 -5.35954 23108 ft 379 kts 213°
2026-05-07 14:59 38.06504 -5.37392 22631 ft 377 kts 212°
2026-05-07 14:59 38.04121 -5.38858 22193 ft 375 kts 212°
2026-05-07 14:59 38.01813 -5.40275 21796 ft 371 kts 212°
2026-05-07 15:00 37.99493 -5.41699 21391 ft 368 kts 212°
2026-05-07 15:00 37.97187 -5.43111 20970 ft 366 kts 212°
2026-05-07 15:00 37.94917 -5.44503 20543 ft 364 kts 212°
2026-05-07 15:00 37.92643 -5.45896 20090 ft 363 kts 211°
2026-05-07 15:01 37.90384 -5.47278 19654 ft 361 kts 212°
2026-05-07 15:01 37.88112 -5.48668 19209 ft 359 kts 211°
2026-05-07 15:01 37.85878 -5.50034 18787 ft 357 kts 211°
2026-05-07 15:01 37.83629 -5.51406 18357 ft 355 kts 211°
2026-05-07 15:02 37.81412 -5.52760 17922 ft 354 kts 211°
2026-05-07 15:02 37.79198 -5.54112 17492 ft 352 kts 211°
2026-05-07 15:02 37.77009 -5.55450 17068 ft 351 kts 210°
2026-05-07 15:02 37.74813 -5.56788 16668 ft 348 kts 210°
2026-05-07 15:03 37.72667 -5.58096 16285 ft 346 kts 210°
2026-05-07 15:03 37.70506 -5.59410 15887 ft 344 kts 209°
2026-05-07 15:03 37.68347 -5.60723 15475 ft 342 kts 209°
2026-05-07 15:03 37.66228 -5.62012 15090 ft 340 kts 208°
2026-05-07 15:04 37.64091 -5.63309 14681 ft 338 kts 208°
2026-05-07 15:04 37.61989 -5.64584 14270 ft 337 kts 208°
2026-05-07 15:04 37.59894 -5.65856 13850 ft 335 kts 207°
2026-05-07 15:04 37.57771 -5.67145 13422 ft 334 kts 206°
2026-05-07 15:05 37.55708 -5.68392 13007 ft 332 kts 206°
2026-05-07 15:05 37.53638 -5.69641 12599 ft 330 kts 207°
2026-05-07 15:05 37.51564 -5.70893 12180 ft 328 kts 207°
2026-05-07 15:05 37.49524 -5.72126 11774 ft 325 kts 206°
2026-05-07 15:06 37.47492 -5.73355 11363 ft 323 kts 206°
2026-05-07 15:06 37.45468 -5.74576 10939 ft 321 kts 206°
2026-05-07 15:06 37.43471 -5.75755 10547 ft 318 kts 204°
2026-05-07 15:06 37.41423 -5.76760 10278 ft 310 kts 200°
2026-05-07 15:07 37.39415 -5.77595 10063 ft 300 kts 199°
2026-05-07 15:07 37.37468 -5.78392 9941 ft 288 kts 199°
2026-05-07 15:07 37.35571 -5.79166 9678 ft 282 kts 199°
2026-05-07 15:07 37.33727 -5.79919 9425 ft 276 kts 199°
2026-05-07 15:08 37.31934 -5.80652 9178 ft 270 kts 199°
2026-05-07 15:08 37.30145 -5.81383 8923 ft 267 kts 198°
2026-05-07 15:08 37.28391 -5.82099 8676 ft 266 kts 199°
2026-05-07 15:08 37.26625 -5.82820 8393 ft 265 kts 198°
2026-05-07 15:09 37.24869 -5.83537 8099 ft 264 kts 198°
2026-05-07 15:09 37.23150 -5.84240 7807 ft 262 kts 198°
2026-05-07 15:09 37.21414 -5.84949 7510 ft 262 kts 198°
2026-05-07 15:09 37.19661 -5.85665 7213 ft 262 kts 198°
2026-05-07 15:10 37.17927 -5.86372 6919 ft 261 kts 198°
2026-05-07 15:10 37.16214 -5.87069 6634 ft 260 kts 198°
2026-05-07 15:10 37.14502 -5.87766 6346 ft 259 kts 198°
2026-05-07 15:10 37.12795 -5.88460 6053 ft 256 kts 198°
2026-05-07 15:11 37.11103 -5.89147 5759 ft 255 kts 198°
2026-05-07 15:11 37.09411 -5.89835 5466 ft 254 kts 198°
2026-05-07 15:11 37.07751 -5.90509 5172 ft 252 kts 198°
2026-05-07 15:11 37.06075 -5.91190 4882 ft 248 kts 198°
2026-05-07 15:12 37.04462 -5.91787 4597 ft 236 kts 196°
2026-05-07 15:12 37.02937 -5.92344 4320 ft 225 kts 198°
2026-05-07 15:12 37.01482 -5.92938 4021 ft 214 kts 199°
2026-05-07 15:12 37.00107 -5.93545 3800 ft 210 kts 200°
2026-05-07 15:13 36.98740 -5.94177 3625 ft 205 kts 201°
2026-05-07 15:13 36.97415 -5.94807 3441 ft 200 kts 202°
2026-05-07 15:13 36.96143 -5.95421 3262 ft 195 kts 202°
2026-05-07 15:13 36.94887 -5.96034 3087 ft 190 kts 202°
2026-05-07 15:14 36.93674 -5.96627 2915 ft 187 kts 202°
2026-05-07 15:14 36.92470 -5.97217 2749 ft 187 kts 202°
2026-05-07 15:14 36.91253 -5.97814 2579 ft 187 kts 202°
2026-05-07 15:14 36.90045 -5.98405 2408 ft 185 kts 202°
2026-05-07 15:15 36.88835 -5.98997 2235 ft 185 kts 203°
2026-05-07 15:15 36.87653 -5.99574 2088 ft 178 kts 203°
2026-05-07 15:15 36.86560 -6.00106 1967 ft 160 kts 203°
2026-05-07 15:15 36.85563 -6.00592 1798 ft 146 kts 204°
2026-05-07 15:16 36.84647 -6.01040 1786 ft 134 kts 204°
2026-05-07 15:16 36.83816 -6.01445 1757 ft 126 kts 204°
2026-05-07 15:16 36.83002 -6.01844 1640 ft 125 kts 203°
2026-05-07 15:16 36.82197 -6.02237 1480 ft 124 kts 203°
2026-05-07 15:17 36.81389 -6.02632 1324 ft 124 kts 203°
2026-05-07 15:17 36.80586 -6.03021 1157 ft 124 kts 205°
2026-05-07 15:17 36.79787 -6.03414 1002 ft 124 kts 202°
2026-05-07 15:17 36.78981 -6.03809 838 ft 123 kts 203°
2026-05-07 15:18 36.78173 -6.04198 677 ft 125 kts 202°
2026-05-07 15:18 36.77380 -6.04595 542 ft 123 kts 202°
2026-05-07 15:18 36.76564 -6.04984 361 ft 124 kts 202°
2026-05-07 15:18 36.75760 -6.05368 204 ft 124 kts 202°
2026-05-07 15:19 36.74966 -6.05757 98 ft 116 kts 204°
2026-05-07 15:19 36.74331 -6.06074 86 ft 64 kts 202°
2026-05-07 15:19 36.74106 -6.06184 83 ft 16 kts 220°
2026-05-07 15:19 36.74043 -6.06306 83 ft 16 kts 240°
2026-05-07 15:20 36.74015 -6.06413 82 ft 13 kts 308°
2026-05-07 15:20 36.74101 -6.06406 83 ft 13 kts 21°
2026-05-07 15:20 36.74191 -6.06363 84 ft 13 kts 21°
2026-05-07 15:20 36.74281 -6.06319 85 ft 14 kts 22°
2026-05-07 15:21 36.74372 -6.06274 87 ft 14 kts 21°
2026-05-07 15:21 36.74477 -6.06223 87 ft 18 kts 21°
2026-05-07 15:21 36.74602 -6.06161 88 ft 19 kts 22°
2026-05-07 15:21 36.74707 -6.06110 89 ft 14 kts 14°
2026-05-07 15:22 36.74770 -6.06192 90 ft 14 kts 288°
2026-05-07 15:22 36.74815 -6.06266 91 ft 11 kts 346°
2026-05-07 15:22 36.74863 -6.06273 91 ft 6 kts 318°
2026-05-07 15:22 36.74882 -6.06321 91 ft 5 kts 291°
2026-05-07 15:23 36.74891 -6.06351 91 ft 0 kts 291°